Location: Stillwell
(40.4602°N, 82.0928°W)
Time: 03:18:58
(UTC-05:00)

Daily predictions for brighter satellites

Satellite Brightness Start Highest point End
(mag) Time Altitude Azimuth Time Altitude Azimuth Time Altitude Azimuth
Cosmos 1980 Rocket 4.1 04:14:52 24° ESE 04:14:52 24° ESE 04:17:17 10° SE
USA 267 3.5 04:37:32 10° NE 04:42:46 60° NNE 04:42:46 60° NNE
Meteor 2-4 Rocket 4.4 04:47:12 50° E 04:47:12 50° E 04:52:20 10° SSE
SL-16 R/B 3.7 04:51:39 26° NNE 04:53:33 32° ENE 04:58:33 10° ESE
Cosmos 2322 Rocket 3.6 04:56:14 26° NNE 04:58:22 33° ENE 05:03:28 10° ESE
CZ-4C R/B 2.4 05:01:47 64° ENE 05:01:47 64° ENE 05:06:57 10° NE
Meteor 2-20 4.4 04:56:48 10° S 05:02:51 77° E 05:08:57 10° N
Meteor 1-11 Rocket 4.0 04:59:56 10° S 05:06:57 62° NNE 05:11:45 10° N
BREEZE-M DEB (TANK) 3.9 05:10:41 49° ENE 05:10:41 49° ENE 05:14:43 10° ESE
Cosmos 2180 Rocket 4.3 05:14:29 75° W 05:14:30 75° W 05:20:43 10° S
SeaSat 1 2.8 05:10:00 10° NNE 05:13:59 58° NNE 05:13:59 58° NNE
USA 234 3.7 05:11:59 10° ESE 05:18:20 55° NE 05:20:47 36° NNW
Cosmos 2082 Rocket 4.4 05:25:06 12° N 05:25:06 12° N 05:25:33 10° N
CZ-2C R/B 4.3 05:18:10 10° NE 05:22:17 28° E 05:26:16 10° SSE
Meteor 1-5 Rocket 4.1 05:17:14 10° S 05:22:41 79° E 05:28:01 10° NNE
SKYMED 2 4.0 05:27:26 10° SSE 05:31:42 61° ENE 05:33:15 37° N
Landsat 4 4.5 05:29:09 10° SSE 05:31:50 45° SSE 05:31:50 45° SSE
NOAA 6 4.1 05:32:40 10° NNE 05:37:50 79° ESE 05:42:59 10° S
Nadezhda 4 Rocket 3.8 05:34:50 10° SSW 05:40:56 69° W 05:47:03 10° N
Cosmos 192 4.2 05:37:32 10° SSW 05:42:26 84° WNW 05:47:23 10° NNE
Cosmos 773 Rocket 3.8 05:43:25 16° SSW 05:47:26 64° WNW 05:52:35 10° NNE
Cosmos 2285 Rocket 4.5 05:46:38 10° S 05:52:50 62° ESE 05:59:02 10° NNE
Cosmos 2360 Rocket 3.4 05:48:49 10° N 05:54:08 39° ENE 05:59:25 10° SE
Meteor 2-20 Rocket 4.5 05:49:10 10° SSW 05:55:05 53° WNW 06:01:03 10° N
Cosmos 1980 Rocket 3.3 05:56:43 26° WSW 05:56:43 26° WSW 06:00:24 10° SSW
Meteor 1-23 Rocket 4.2 05:56:29 22° NNW 05:59:54 55° W 06:05:18 10° S
Cosmos 1680 Rocket 3.8 05:55:49 10° S 06:00:57 68° ESE 06:06:09 10° NNE
Cosmos 1025 Rocket 2.9 05:59:07 18° N 06:02:13 85° W 06:06:30 10° S
Okean 1-7 Rocket 3.8 05:59:39 10° N 06:04:13 74° E 06:08:45 10° SSE
CZ-4 R/B 4.5 06:01:44 10° NE 06:04:38 18° E 06:07:32 10° SE
BREEZE-M DEB (TANK) 2.0 06:06:51 61° N 06:06:51 61° N 06:10:02 10° NE
IDEFIX/ARIANE 42P 2.4 06:03:08 10° N 06:08:20 74° WNW 06:13:33 10° SSW
Cosmos 1515 3.7 06:07:38 40° NW 06:08:39 53° W 06:12:23 10° S
COSMO-SKYMED 1 3.1 06:15:47 10° SSW 06:19:48 37° W 06:21:52 24° NW
Cosmos 1975 2.7 06:18:48 10° S 06:22:46 87° W 06:26:47 10° N
Cosmos 1092 Rocket 4.2 06:17:22 10° SSW 06:23:13 46° WNW 06:29:07 10° N
ATLAS 5 CENTAUR R/B 4.4 06:20:40 10° N 06:24:52 20° NE 06:29:21 10° E
Okean 2 3.7 06:22:39 18° NNW 06:25:18 43° W 06:29:11 10° SSW
USA 267 4.1 06:20:58 10° NE 06:26:30 31° NNW 06:30:07 19° WNW
SJ-12 3.8 06:23:34 10° N 06:27:40 84° W 06:31:42 10° SSW
Thor Agena Rocket 3.7 06:23:00 10° SSE 06:28:01 74° ENE 06:33:06 10° N
Cosmos 923 Rocket 4.2 06:28:05 10° SW 06:33:07 47° WNW 06:38:10 10° N
Okean-O 3.4 06:30:03 10° N 06:33:51 29° WNW 06:37:39 10° SW
Okean 1 Rocket 3.9 06:32:02 10° SW 06:35:44 27° WNW 06:39:30 10° NNW
Cosmos 2026 Rocket 4.0 06:29:41 10° SSW 06:35:52 61° W 06:42:11 10° N
SL-16 R/B 2.8 06:33:33 15° NW 06:37:41 37° WSW 06:42:49 10° S
APEX 3.5 06:37:28 10° SW 06:40:42 40° WNW 06:44:44 10° NNE
Cosmos 1655 Rocket 4.0 06:35:13 10° S 06:41:26 78° W 06:47:46 10° N
Meteor 1-4 Rocket 3.9 06:38:44 10° SW 06:41:41 21° WNW 06:44:38 10° NNW
Cosmos 2322 Rocket 2.9 06:38:06 14° NW 06:42:23 35° WSW 06:47:28 10° SSW
CSL-04 Rocket 4.0 06:39:46 10° NNE 06:45:21 74° ESE 06:50:51 10° S
Cosmos 1553 Rocket 4.0 06:40:15 10° N 06:46:30 85° W 06:52:37 10° S
Aureole 1 Rocket 4.0 06:46:08 10° S 06:48:57 36° ESE 06:52:09 10° NE
Cosmos 2112 Rocket 4.1 06:44:21 10° SW 06:49:24 51° WNW 06:54:29 10° N
Meteor 1-12 Rocket 4.2 06:44:10 10° SSW 06:49:50 69° W 06:55:29 10° N
ATLAS CENTAUR R/B 1.3 06:46:32 10° SSW 06:50:14 74° ESE 06:53:55 10° NE
CZ-4C R/B 3.4 06:47:02 14° W 06:50:21 22° NW 06:55:03 10° NNE
Cosmos 1743 2.7 06:46:55 10° SSW 06:50:40 61° W 06:54:28 10° N
MSX 4.0 06:45:08 10° N 06:50:41 52° WNW 06:56:13 10° SW
Cosmos 1184 Rocket 4.0 06:49:33 13° NW 06:51:44 24° W 06:54:30 10° SSW
SeaSat 1 4.0 06:49:05 10° NNW 06:51:51 15° NW 06:53:48 12° WNW
Cosmos 1892 Rocket 3.6 06:51:49 10° NNW 06:56:07 55° W 07:00:20 10° S
Cosmos 1842 4.2 06:52:24 10° N 06:56:17 52° E 07:00:09 10° SSE
Cosmos 2237 4.3 06:50:36 10° NNW 06:56:20 83° ENE 07:02:01 10° SSE
YAOGAN 1 3.9 06:52:12 10° NNE 06:56:23 45° E 07:00:31 10° S
Cosmos 1484 Rocket 2.7 06:52:37 10° N 06:56:28 67° WNW 07:00:14 10° SSW
Cosmos 2056 Rocket 3.7 06:51:46 10° NNW 06:56:54 76° ENE 07:02:03 10° SSE
CZ-2C R/B 3.1 06:56:20 10° N 07:00:28 29° WNW 07:04:30 10° SW
USA 234 3.8 06:55:10 10° SSE 07:01:22 45° SW 07:07:38 10° WNW
Lacrosse 5 3.3 06:59:15 10° SSW 07:04:01 43° SE 07:08:48 10° ENE
Tiangong 1 3.8 07:05:15 10° S 07:06:32 13° SE 07:07:49 10° ESE
AQUARIUS 4.1 07:02:25 10° N 07:06:54 71° WNW 07:11:22 10° SSW
Cosmos 2322 3.7 07:02:31 10° NNW 07:08:10 69° WSW 07:13:45 10° SSE
BREEZE-M DEB (TANK) 2.7 07:06:34 10° WNW 07:12:18 45° NNE 07:14:27 10° E
Ariane Rocket 3.0 07:12:14 10° N 07:17:15 64° WNW 07:22:15 10° SSW
Cosmos 1340 Rocket 2.8 07:15:04 10° NNW 07:18:59 61° W 07:22:54 10° S
CORIOLIS 4.1 07:16:44 10° N 07:22:05 71° WNW 07:27:22 10° SSW
